| time (UTC) | temp C | wind direction | speed KPH | gust KPH | rain 1hr cm | rain 24hr cm | rain mn cm | humidity % | barometer mb |
| 20260906191054 | 27 | 276 | 0.0 | 0.0 | 0.00 | 0.00 | 0.00 | 57 | 1024.6 |
| 20260906190544 | 27 | 276 | 0.0 | 0.0 | 0.00 | 0.00 | 0.00 | 57 | 1024.5 |
| 20260906190039 | 27 | 276 | 0.0 | 4.8 | 0.00 | 0.00 | 0.00 | 57 | 1024.4 |
| 20260906185529 | 27 | 278 | 0.0 | 4.8 | 0.00 | 0.00 | 0.00 | 56 | 1024.1 |
| 20260906185023 | 28 | 278 | 0.0 | 1.6 | 0.00 | 0.00 | 0.00 | 56 | 1024.2 |
| 20260906184517 | 28 | 276 | 0.0 | 0.0 | 0.00 | 0.00 | 0.00 | 55 | 1024.0 |
| 20260906184014 | 28 | 278 | 0.0 | 0.0 | 0.00 | 0.00 | 0.00 | 55 | 1024.0 |
| 20260906183506 | 28 | 278 | 0.0 | 0.0 | 0.00 | 0.00 | 0.00 | 55 | 1023.9 |
| 20260906182959 | 28 | 278 | 0.0 | 0.0 | 0.00 | 0.00 | 0.00 | 54 | 1023.9 |
| 20260906182453 | 29 | 278 | 0.0 | 0.0 | 0.00 | 0.00 | 0.00 | 54 | 1023.8 |
| 20260906182001 | 29 | 278 | 0.0 | 0.0 | 0.00 | 0.00 | 0.00 | 53 | 1023.7 |
| 20260906181441 | 30 | 274 | 0.0 | 0.0 | 0.00 | 0.00 | 0.00 | 52 | 1023.7 |
| 20260906180936 | 30 | 274 | 0.0 | 0.0 | 0.00 | 0.00 | 0.00 | 51 | 1023.5 |
| 20260906180429 | 30 | 274 | 0.0 | 0.0 | 0.00 | 0.00 | 0.00 | 49 | 1023.6 |
| 20260906175417 | 31 | 274 | 0.0 | 0.0 | 0.00 | 0.00 | 0.00 | 48 | 1023.4 |
| 20260906174910 | 31 | 274 | 0.0 | 0.0 | 0.00 | 0.00 | 0.00 | 47 | 1023.3 |
| 20260906173405 | 32 | 274 | 0.0 | 0.0 | 0.00 | 0.00 | 0.00 | 44 | 1023.1 |
| 20260906172905 | 33 | 274 | 0.0 | 0.0 | 0.00 | 0.00 | 0.00 | 43 | 1023.0 |
| 20260906170859 | 35 | 276 | 0.0 | 1.6 | 0.00 | 0.00 | 0.00 | 39 | 1022.6 |
| 20260906170358 | 35 | 276 | 0.0 | 1.6 | 0.00 | 0.00 | 0.00 | 37 | 1022.6 |
| 20260906165855 | 35 | 276 | 0.0 | 0.0 | 0.00 | 0.00 | 0.00 | 36 | 1022.6 |
| 20260906165353 | 36 | 276 | 0.0 | 0.0 | 0.00 | 0.00 | 0.00 | 35 | 1022.6 |
| 20260906164349 | 36 | 276 | 0.0 | 1.6 | 0.00 | 0.00 | 0.00 | 35 | 1022.7 |
| 20260906162845 | 36 | 281 | 0.0 | 3.2 | 0.00 | 0.00 | 0.00 | 34 | 1022.5 |
| 20260906162343 | 36 | 274 | 0.0 | 1.6 | 0.00 | 0.00 | 0.00 | 33 | 1022.6 |
| 20260906161845 | 36 | 271 | 0.0 | 3.2 | 0.00 | 0.00 | 0.00 | 33 | 1022.4 |
| 20260906161340 | 36 | 271 | 0.0 | 3.2 | 0.00 | 0.00 | 0.00 | 32 | 1022.5 |
| 20260906160839 | 36 | 335 | 0.0 | 0.0 | 0.00 | 0.00 | 0.00 | 32 | 1022.5 |
| 20260906160352 | 36 | 342 | 0.0 | 1.6 | 0.00 | 0.00 | 0.00 | 32 | 1022.5 |
| 20260906155835 | 36 | 342 | 0.0 | 4.8 | 0.00 | 0.00 | 0.00 | 33 | 1022.5 |
| 20260906155335 | 36 | 351 | 0.0 | 4.8 | 0.00 | 0.00 | 0.00 | 34 | 1022.6 |
| 20260906154835 | 36 | 193 | 0.0 | 3.2 | 0.00 | 0.00 | 0.00 | 33 | 1022.6 |
| 20260906154335 | 36 | 151 | 0.0 | 4.8 | 0.00 | 0.00 | 0.00 | 34 | 1022.6 |
| 20260906153836 | 36 | 150 | 0.0 | 4.8 | 0.00 | 0.00 | 0.00 | 33 | 1022.6 |
| 20260906153337 | 36 | 158 | 0.0 | 3.2 | 0.00 | 0.00 | 0.00 | 33 | 1022.7 |
| 20260906152833 | 36 | 231 | 0.0 | 8.0 | 0.00 | 0.00 | 0.00 | 33 | 1022.6 |
| 20260906152336 | 36 | 233 | 0.0 | 8.0 | 0.00 | 0.00 | 0.00 | 32 | 1022.7 |
| 20260906151335 | 36 | 205 | 0.0 | 6.4 | 0.00 | 0.00 | 0.00 | 32 | 1022.6 |
| 20260906150832 | 36 | 196 | 0.0 | 6.4 | 0.00 | 0.00 | 0.00 | 33 | 1022.6 |
| 20260906145834 | 36 | 195 | 0.0 | 6.4 | 0.00 | 0.00 | 0.00 | 33 | 1022.6 |
| 20260906145334 | 36 | 211 | 0.0 | 6.4 | 0.00 | 0.00 | 0.00 | 33 | 1022.7 |
| 20260906144833 | 36 | 165 | 0.0 | 6.4 | 0.00 | 0.00 | 0.00 | 33 | 1022.6 |
| 20260906144333 | 36 | 169 | 0.0 | 6.4 | 0.00 | 0.00 | 0.00 | 33 | 1022.7 |
| 20260906143333 | 36 | 150 | 0.0 | 4.8 | 0.00 | 0.00 | 0.00 | 35 | 1022.8 |
| 20260906142833 | 36 | 185 | 0.0 | 6.4 | 0.00 | 0.00 | 0.00 | 35 | 1022.7 |
| 20260906141330 | 36 | 282 | 0.0 | 8.0 | 0.00 | 0.00 | 0.00 | 35 | 1022.8 |
| 20260906140329 | 36 | 126 | 0.0 | 4.8 | 0.00 | 0.00 | 0.00 | 32 | 1022.8 |
| 20260906135830 | 36 | 136 | 0.0 | 3.2 | 0.00 | 0.00 | 0.00 | 32 | 1022.8 |
| 20260906135331 | 36 | 116 | 0.0 | 4.8 | 0.00 | 0.00 | 0.00 | 33 | 1022.8 |
| 20260906134828 | 36 | 116 | 0.0 | 4.8 | 0.00 | 0.00 | 0.00 | 31 | 1022.8 |
| 20260906134342 | 36 | 104 | 0.0 | 3.2 | 0.00 | 0.00 | 0.00 | 31 | 1022.9 |
| 20260906133828 | 36 | 103 | 0.0 | 3.2 | 0.00 | 0.00 | 0.00 | 31 | 1022.9 |
| 20260906133331 | 36 | 98 | 1.6 | 9.7 | 0.00 | 0.00 | 0.00 | 32 | 1022.9 |
| 20260906132828 | 36 | 98 | 1.6 | 9.7 | 0.00 | 0.00 | 0.00 | 31 | 1023.0 |
| 20260906132325 | 36 | 57 | 0.0 | 4.8 | 0.00 | 0.00 | 0.00 | 31 | 1023.0 |
| 20260906131825 | 35 | 129 | 0.0 | 8.0 | 0.00 | 0.00 | 0.00 | 32 | 1023.0 |
| 20260906131327 | 35 | 124 | 0.0 | 8.0 | 0.00 | 0.00 | 0.00 | 31 | 1023.0 |
| 20260906130824 | 35 | 190 | 1.6 | 6.4 | 0.00 | 0.00 | 0.00 | 34 | 1023.1 |
| 20260906130335 | 35 | 145 | 1.6 | 9.7 | 0.00 | 0.00 | 0.00 | 35 | 1023.2 |
| 20260906125824 | 35 | 148 | 1.6 | 9.7 | 0.00 | 0.00 | 0.00 | 32 | 1023.2 |
| 20260906125322 | 35 | 139 | 1.6 | 8.0 | 0.00 | 0.00 | 0.00 | 34 | 1023.2 |
| 20260906124821 | 36 | 187 | 0.0 | 8.0 | 0.00 | 0.00 | 0.00 | 35 | 1023.2 |
| 20260906124321 | 36 | 190 | 0.0 | 1.6 | 0.00 | 0.00 | 0.00 | 34 | 1023.3 |
| 20260906123822 | 36 | 158 | 0.0 | 3.2 | 0.00 | 0.00 | 0.00 | 35 | 1023.3 |
| 20260906123324 | 35 | 158 | 0.0 | 3.2 | 0.00 | 0.00 | 0.00 | 37 | 1023.2 |
| 20260906122819 | 35 | 90 | 0.0 | 1.6 | 0.00 | 0.00 | 0.00 | 35 | 1023.3 |
| 20260906122320 | 35 | 95 | 0.0 | 1.6 | 0.00 | 0.00 | 0.00 | 36 | 1023.4 |
| 20260906121812 | 35 | 96 | 0.0 | 6.4 | 0.00 | 0.00 | 0.00 | 37 | 1023.4 |
| 20260906121308 | 35 | 97 | 0.0 | 6.4 | 0.00 | 0.00 | 0.00 | 38 | 1023.4 |
| 20260906120809 | 35 | 93 | 0.0 | 6.4 | 0.00 | 0.00 | 0.00 | 39 | 1023.5 |
| 20260906120310 | 34 | 160 | 0.0 | 6.4 | 0.00 | 0.00 | 0.00 | 40 | 1023.5 |
| 20260906115808 | 34 | 108 | 1.6 | 11.3 | 0.00 | 0.00 | 0.00 | 41 | 1023.5 |
| 20260906115309 | 34 | 130 | 1.6 | 11.3 | 0.00 | 0.00 | 0.00 | 37 | 1023.5 |
| 20260906114807 | 34 | 65 | 0.0 | 3.2 | 0.00 | 0.00 | 0.00 | 39 | 1023.4 |
| 20260906114307 | 34 | 100 | 1.6 | 9.7 | 0.00 | 0.00 | 0.00 | 39 | 1023.5 |
| 20260906113806 | 33 | 107 | 1.6 | 9.7 | 0.00 | 0.00 | 0.00 | 39 | 1023.5 |
| 20260906113304 | 34 | 84 | 0.0 | 8.0 | 0.00 | 0.00 | 0.00 | 39 | 1023.5 |
| 20260906112802 | 33 | 84 | 0.0 | 8.0 | 0.00 | 0.00 | 0.00 | 39 | 1023.5 |
| 20260906112300 | 33 | 115 | 0.0 | 8.0 | 0.00 | 0.00 | 0.00 | 37 | 1023.5 |
| 20260906110759 | 33 | 127 | 0.0 | 3.2 | 0.00 | 0.00 | 0.00 | 41 | 1023.6 |
| 20260906105753 | 33 | 101 | 1.6 | 6.4 | 0.00 | 0.00 | 0.00 | 43 | 1023.7 |
| 20260906105252 | 33 | 94 | 0.0 | 6.4 | 0.00 | 0.00 | 0.00 | 39 | 1023.7 |
| 20260906104754 | 33 | 106 | 0.0 | 3.2 | 0.00 | 0.00 | 0.00 | 42 | 1023.7 |
| 20260906104252 | 32 | 94 | 0.0 | 3.2 | 0.00 | 0.00 | 0.00 | 40 | 1023.8 |
| 20260906103750 | 32 | 97 | 0.0 | 4.8 | 0.00 | 0.00 | 0.00 | 43 | 1023.8 |
| 20260906103245 | 32 | 108 | 1.6 | 9.7 | 0.00 | 0.00 | 0.00 | 46 | 1023.9 |
| 20260906102738 | 32 | 83 | 1.6 | 11.3 | 0.00 | 0.00 | 0.00 | 46 | 1023.9 |
| 20260906102231 | 31 | 117 | 1.6 | 8.0 | 0.00 | 0.00 | 0.00 | 47 | 1023.9 |
| 20260906101727 | 31 | 103 | 1.6 | 8.0 | 0.00 | 0.00 | 0.00 | 48 | 1024.0 |
| 20260906101220 | 31 | 110 | 1.6 | 9.7 | 0.00 | 0.00 | 0.00 | 49 | 1024.0 |
| 20260906100714 | 31 | 145 | 1.6 | 9.7 | 0.00 | 0.00 | 0.00 | 50 | 1024.1 |
| 20260906100208 | 31 | 148 | 0.0 | 8.0 | 0.00 | 0.00 | 0.00 | 50 | 1024.1 |
| 20260906095703 | 31 | 151 | 1.6 | 8.0 | 0.00 | 0.00 | 0.00 | 51 | 1024.1 |
| 20260906095155 | 31 | 148 | 1.6 | 8.0 | 0.00 | 0.00 | 0.00 | 51 | 1024.1 |
| 20260906094650 | 31 | 112 | 1.6 | 6.4 | 0.00 | 0.00 | 0.00 | 51 | 1024.2 |
| 20260906094147 | 30 | 142 | 0.0 | 8.0 | 0.00 | 0.00 | 0.00 | 56 | 1024.5 |
| 20260906093638 | 30 | 112 | 0.0 | 8.0 | 0.00 | 0.00 | 0.00 | 57 | 1024.5 |
| 20260906093132 | 30 | 103 | 0.0 | 4.8 | 0.00 | 0.00 | 0.00 | 60 | 1024.6 |
| 20260906092122 | 30 | 126 | 0.0 | 3.2 | 0.00 | 0.00 | 0.00 | 62 | 1024.5 |
| 20260906091614 | 29 | 129 | 0.0 | 3.2 | 0.00 | 0.00 | 0.00 | 63 | 1024.7 |
| 20260906091112 | 29 | 128 | 0.0 | 3.2 | 0.00 | 0.00 | 0.00 | 65 | 1024.6 |
| 20260906090610 | 29 | 128 | 0.0 | 3.2 | 0.00 | 0.00 | 0.00 | 64 | 1024.6 |
| 20260906090112 | 28 | 130 | 0.0 | 1.6 | 0.00 | 0.00 | 0.00 | 66 | 1024.6 |
| 20260906085108 | 28 | 136 | 0.0 | 4.8 | 0.00 | 0.00 | 0.00 | 66 | 1024.6 |
| 20260906084105 | 27 | 143 | 0.0 | 6.4 | 0.00 | 0.00 | 0.00 | 67 | 1024.6 |
| 20260906083100 | 27 | 139 | 0.0 | 4.8 | 0.00 | 0.00 | 0.00 | 70 | 1024.5 |
| 20260906082558 | 27 | 135 | 0.0 | 4.8 | 0.00 | 0.00 | 0.00 | 71 | 1024.7 |
| 20260906082059 | 27 | 146 | 0.0 | 4.8 | 0.00 | 0.00 | 0.00 | 71 | 1024.6 |
| 20260906081558 | 26 | 117 | 0.0 | 3.2 | 0.00 | 0.00 | 0.00 | 72 | 1024.7 |
| 20260906081057 | 26 | 117 | 0.0 | 3.2 | 0.00 | 0.00 | 0.00 | 72 | 1024.7 |
| 20260906080556 | 26 | 108 | 0.0 | 1.6 | 0.00 | 0.00 | 0.00 | 74 | 1024.7 |
| 20260906080107 | 26 | 108 | 0.0 | 1.6 | 0.00 | 0.00 | 0.00 | 73 | 1024.6 |
| 20260906075550 | 26 | 109 | 0.0 | 4.8 | 0.00 | 0.00 | 0.00 | 74 | 1024.6 |
| 20260906075048 | 26 | 112 | 0.0 | 4.8 | 0.00 | 0.00 | 0.00 | 75 | 1024.5 |
| 20260906074547 | 25 | 112 | 0.0 | 3.2 | 0.00 | 0.00 | 0.00 | 76 | 1024.6 |
| 20260906074045 | 25 | 136 | 0.0 | 3.2 | 0.00 | 0.00 | 0.00 | 75 | 1024.5 |
| 20260906073555 | 25 | 136 | 0.0 | 4.8 | 0.00 | 0.00 | 0.00 | 75 | 1024.5 |
| 20260906073042 | 25 | 135 | 0.0 | 4.8 | 0.00 | 0.00 | 0.00 | 76 | 1024.4 |
| 20260906072538 | 24 | 155 | 0.0 | 4.8 | 0.00 | 0.00 | 0.00 | 77 | 1024.5 |
| 20260906072030 | 24 | 162 | 0.0 | 4.8 | 0.00 | 0.00 | 0.00 | 78 | 1024.5 |
| 20260906071525 | 24 | 162 | 0.0 | 4.8 | 0.00 | 0.00 | 0.00 | 78 | 1024.4 |
| 20260906071022 | 24 | 211 | 0.0 | 1.6 | 0.00 | 0.00 | 0.00 | 79 | 1024.5 |
| 20260906070522 | 23 | 256 | 0.0 | 0.0 | 0.00 | 0.00 | 0.00 | 79 | 1024.5 |
| 20260906070021 | 23 | 274 | 0.0 | 0.0 | 0.00 | 0.00 | 0.00 | 80 | 1024.5 |
| 20260906064515 | 21 | 278 | 0.0 | 0.0 | 0.00 | 0.00 | 0.00 | 84 | 1024.2 |
| 20260906064014 | 21 | 278 | 0.0 | 0.0 | 0.00 | 0.00 | 0.00 | 84 | 1024.2 |
| 20260906063515 | 21 | 278 | 0.0 | 0.0 | 0.00 | 0.00 | 0.00 | 85 | 1024.4 |
| 20260906063012 | 20 | 278 | 0.0 | 1.6 | 0.00 | 0.00 | 0.00 | 86 | 1024.4 |
| 20260906062512 | 20 | 278 | 0.0 | 1.6 | 0.00 | 0.00 | 0.00 | 87 | 1024.4 |
| 20260906061511 | 19 | 278 | 0.0 | 0.0 | 0.00 | 0.00 | 0.00 | 88 | 1024.2 |
| 20260906061009 | 19 | 278 | 0.0 | 1.6 | 0.00 | 0.00 | 0.00 | 88 | 1024.1 |
| 20260906060008 | 18 | 278 | 0.0 | 4.8 | 0.00 | 0.00 | 0.00 | 88 | 1024.1 |
| 20260906055506 | 18 | 269 | 0.0 | 1.6 | 0.00 | 0.00 | 0.00 | 89 | 1024.0 |
| 20260906055005 | 18 | 269 | 0.0 | 0.0 | 0.00 | 0.00 | 0.00 | 89 | 1024.0 |
| 20260906054516 | 18 | 269 | 0.0 | 3.2 | 0.00 | 0.00 | 0.00 | 89 | 1023.9 |
| 20260906054002 | 18 | 269 | 0.0 | 3.2 | 0.00 | 0.00 | 0.00 | 89 | 1023.9 |
| 20260906053504 | 18 | 266 | 0.0 | 3.2 | 0.00 | 0.00 | 0.00 | 89 | 1023.9 |
| 20260906053002 | 18 | 266 | 0.0 | 3.2 | 0.00 | 0.00 | 0.00 | 89 | 1023.9 |
| 20260906052502 | 17 | 268 | 0.0 | 0.0 | 0.00 | 0.00 | 0.00 | 89 | 1023.8 |
| 20260906052000 | 17 | 268 | 0.0 | 0.0 | 0.00 | 0.00 | 0.00 | 89 | 1023.8 |
| 20260906051001 | 17 | 267 | 0.0 | 0.0 | 0.00 | 0.00 | 0.00 | 89 | 1023.6 |
| 20260906050502 | 17 | 267 | 0.0 | 0.0 | 0.00 | 0.00 | 0.00 | 89 | 1023.7 |
| 20260906045959 | 17 | 267 | 0.0 | 0.0 | 0.00 | 0.00 | 0.00 | 89 | 1023.8 |
| 20260906044957 | 17 | 267 | 0.0 | 0.0 | 0.00 | 0.00 | 0.00 | 89 | 1023.6 |
| 20260906044455 | 17 | 267 | 0.0 | 0.0 | 0.00 | 0.00 | 0.00 | 89 | 1023.5 |
| 20260906043957 | 17 | 268 | 0.0 | 0.0 | 0.00 | 0.00 | 0.00 | 89 | 1023.5 |
| 20260906043455 | 17 | 267 | 0.0 | 1.6 | 0.00 | 0.00 | 0.00 | 89 | 1023.5 |
| 20260906042957 | 17 | 268 | 0.0 | 1.6 | 0.00 | 0.00 | 0.00 | 89 | 1023.5 |
| 20260906042456 | 17 | 268 | 0.0 | 0.0 | 0.00 | 0.00 | 0.00 | 89 | 1023.5 |
| 20260906041956 | 17 | 268 | 0.0 | 0.0 | 0.00 | 0.00 | 0.00 | 89 | 1023.5 |
| 20260906041456 | 17 | 268 | 0.0 | 0.0 | 0.00 | 0.00 | 0.00 | 89 | 1023.5 |
| 20260906040959 | 18 | 268 | 0.0 | 0.0 | 0.00 | 0.00 | 0.00 | 89 | 1023.6 |
| 20260906040456 | 18 | 268 | 0.0 | 0.0 | 0.00 | 0.00 | 0.00 | 89 | 1023.5 |
| 20260906035456 | 18 | 267 | 0.0 | 0.0 | 0.00 | 0.00 | 0.00 | 89 | 1023.5 |
| 20260906034456 | 18 | 267 | 0.0 | 1.6 | 0.00 | 0.00 | 0.00 | 88 | 1023.3 |
| 20260906033955 | 18 | 267 | 0.0 | 1.6 | 0.00 | 0.00 | 0.00 | 88 | 1023.4 |
| 20260906033457 | 18 | 267 | 0.0 | 0.0 | 0.00 | 0.00 | 0.00 | 88 | 1023.2 |
| 20260906032957 | 18 | 267 | 0.0 | 0.0 | 0.00 | 0.00 | 0.00 | 88 | 1023.3 |
| 20260906032456 | 18 | 267 | 0.0 | 0.0 | 0.00 | 0.00 | 0.00 | 88 | 1023.1 |
| 20260906031950 | 18 | 267 | 0.0 | 0.0 | 0.00 | 0.00 | 0.00 | 88 | 1023.2 |
| 20260906031444 | 18 | 267 | 0.0 | 3.2 | 0.00 | 0.00 | 0.00 | 88 | 1023.1 |
| 20260906030938 | 18 | 266 | 0.0 | 3.2 | 0.00 | 0.00 | 0.00 | 87 | 1023.2 |
| 20260906030431 | 18 | 265 | 0.0 | 1.6 | 0.00 | 0.00 | 0.00 | 88 | 1023.1 |
| 20260906024913 | 18 | 265 | 0.0 | 0.0 | 0.00 | 0.00 | 0.00 | 87 | 1023.1 |
| 20260906024405 | 18 | 264 | 0.0 | 1.6 | 0.00 | 0.00 | 0.00 | 87 | 1023.1 |
| 20260906023902 | 18 | 264 | 0.0 | 1.6 | 0.00 | 0.00 | 0.00 | 87 | 1023.2 |
| 20260906023355 | 19 | 264 | 0.0 | 0.0 | 0.00 | 0.00 | 0.00 | 87 | 1023.2 |
| 20260906022847 | 19 | 264 | 0.0 | 0.0 | 0.00 | 0.00 | 0.00 | 87 | 1023.1 |
| 20260906022341 | 19 | 264 | 0.0 | 0.0 | 0.00 | 0.00 | 0.00 | 87 | 1023.0 |
| 20260906021835 | 19 | 264 | 0.0 | 0.0 | 0.00 | 0.00 | 0.00 | 87 | 1023.0 |
| 20260906021327 | 19 | 264 | 0.0 | 0.0 | 0.00 | 0.00 | 0.00 | 86 | 1023.0 |
| 20260906020822 | 19 | 264 | 0.0 | 0.0 | 0.00 | 0.00 | 0.00 | 87 | 1023.0 |
| 20260906020330 | 19 | 264 | 0.0 | 0.0 | 0.00 | 0.00 | 0.00 | 86 | 1023.0 |
| 20260906015811 | 19 | 264 | 0.0 | 0.0 | 0.00 | 0.00 | 0.00 | 86 | 1023.0 |
| 20260906015305 | 19 | 264 | 0.0 | 0.0 | 0.00 | 0.00 | 0.00 | 86 | 1023.1 |
| 20260906014756 | 19 | 264 | 0.0 | 0.0 | 0.00 | 0.00 | 0.00 | 86 | 1023.0 |
| 20260906014252 | 19 | 264 | 0.0 | 0.0 | 0.00 | 0.00 | 0.00 | 86 | 1023.0 |
| 20260906013748 | 20 | 264 | 0.0 | 0.0 | 0.00 | 0.00 | 0.00 | 85 | 1023.0 |
| 20260906012735 | 20 | 264 | 0.0 | 0.0 | 0.00 | 0.00 | 0.00 | 84 | 1023.1 |
| 20260906012226 | 20 | 264 | 0.0 | 0.0 | 0.00 | 0.00 | 0.00 | 84 | 1023.1 |
| 20260906011721 | 20 | 264 | 0.0 | 0.0 | 0.00 | 0.00 | 0.00 | 84 | 1023.2 |
| 20260906011217 | 20 | 264 | 0.0 | 1.6 | 0.00 | 0.00 | 0.00 | 84 | 1023.1 |
| 20260906010710 | 20 | 264 | 0.0 | 1.6 | 0.00 | 0.00 | 0.00 | 84 | 1023.1 |
| 20260906010202 | 20 | 264 | 0.0 | 0.0 | 0.00 | 0.00 | 0.00 | 85 | 1023.1 |
| 20260906005204 | 20 | 264 | 0.0 | 0.0 | 0.00 | 0.00 | 0.00 | 85 | 1023.1 |
| 20260906004705 | 20 | 264 | 0.0 | 1.6 | 0.00 | 0.00 | 0.00 | 85 | 1023.1 |
| 20260906004202 | 20 | 264 | 0.0 | 4.8 | 0.00 | 0.00 | 0.00 | 84 | 1023.1 |
| 20260906003700 | 20 | 264 | 0.0 | 4.8 | 0.00 | 0.00 | 0.00 | 83 | 1023.1 |
| 20260906003157 | 20 | 273 | 0.0 | 4.8 | 0.00 | 0.00 | 0.00 | 83 | 1023.2 |
| 20260906002656 | 20 | 272 | 0.0 | 0.0 | 0.00 | 0.00 | 0.00 | 83 | 1023.3 |
| 20260906002153 | 20 | 272 | 0.0 | 0.0 | 0.00 | 0.00 | 0.00 | 83 | 1023.2 |
| 20260906001651 | 20 | 273 | 0.0 | 0.0 | 0.00 | 0.00 | 0.00 | 82 | 1023.2 |
| 20260906001150 | 21 | 273 | 0.0 | 0.0 | 0.00 | 0.00 | 0.00 | 82 | 1023.3 |
| 20260906000648 | 21 | 273 | 0.0 | 0.0 | 0.00 | 0.00 | 0.00 | 82 | 1023.2 |
| 20260906000145 | 21 | 273 | 0.0 | 3.2 | 0.00 | 0.00 | 0.00 | 82 | 1023.2 |
| 20260905235645 | 21 | 273 | 0.0 | 3.2 | 0.00 | 0.00 | 0.00 | 82 | 1023.3 |
| 20260905234640 | 21 | 274 | 0.0 | 4.8 | 0.00 | 0.00 | 0.00 | 82 | 1023.4 |
| 20260905234138 | 21 | 274 | 1.6 | 6.4 | 0.00 | 0.00 | 0.00 | 81 | 1023.3 |
| 20260905232637 | 21 | 270 | 0.0 | 4.8 | 0.00 | 0.00 | 0.00 | 79 | 1023.4 |
| 20260905232136 | 21 | 270 | 0.0 | 4.8 | 0.00 | 0.00 | 0.00 | 78 | 1023.3 |
| 20260905231631 | 21 | 268 | 0.0 | 0.0 | 0.00 | 0.00 | 0.00 | 79 | 1023.4 |
| 20260905231128 | 21 | 268 | 0.0 | 0.0 | 0.00 | 0.00 | 0.00 | 78 | 1023.4 |
| 20260905230627 | 21 | 268 | 0.0 | 0.0 | 0.00 | 0.00 | 0.00 | 78 | 1023.3 |
| 20260905230127 | 22 | 268 | 0.0 | 0.0 | 0.00 | 0.00 | 0.00 | 78 | 1023.4 |
| 20260905225628 | 22 | 268 | 0.0 | 0.0 | 0.00 | 0.00 | 0.00 | 77 | 1023.3 |
| 20260905225127 | 22 | 267 | 0.0 | 0.0 | 0.00 | 0.00 | 0.00 | 77 | 1023.2 |
| 20260905224625 | 22 | 268 | 0.0 | 0.0 | 0.00 | 0.00 | 0.00 | 77 | 1023.2 |
| 20260905224125 | 22 | 268 | 0.0 | 0.0 | 0.00 | 0.00 | 0.00 | 76 | 1023.2 |
| 20260905223625 | 22 | 268 | 0.0 | 0.0 | 0.00 | 0.00 | 0.00 | 75 | 1023.1 |
| 20260905223125 | 22 | 268 | 0.0 | 0.0 | 0.00 | 0.00 | 0.00 | 75 | 1023.1 |
| 20260905222623 | 22 | 268 | 0.0 | 0.0 | 0.00 | 0.00 | 0.00 | 75 | 1023.1 |
| 20260905222123 | 22 | 268 | 0.0 | 0.0 | 0.00 | 0.00 | 0.00 | 74 | 1023.1 |
| 20260905221621 | 22 | 269 | 0.0 | 0.0 | 0.00 | 0.00 | 0.00 | 74 | 1023.1 |
| 20260905221121 | 23 | 269 | 0.0 | 0.0 | 0.00 | 0.00 | 0.00 | 74 | 1023.0 |
| 20260905220625 | 23 | 269 | 0.0 | 0.0 | 0.00 | 0.00 | 0.00 | 74 | 1022.9 |
| 20260905220122 | 23 | 269 | 0.0 | 6.4 | 0.00 | 0.00 | 0.00 | 74 | 1023.0 |
| 20260905215620 | 23 | 269 | 0.0 | 6.4 | 0.00 | 0.00 | 0.00 | 73 | 1022.9 |
| 20260905215118 | 23 | 285 | 0.0 | 1.6 | 0.00 | 0.00 | 0.00 | 72 | 1022.9 |
| 20260905214615 | 23 | 305 | 0.0 | 0.0 | 0.00 | 0.00 | 0.00 | 71 | 1022.9 |
| 20260905214119 | 23 | 306 | 0.0 | 0.0 | 0.00 | 0.00 | 0.00 | 71 | 1022.8 |
| 20260905213609 | 23 | 306 | 0.0 | 0.0 | 0.00 | 0.00 | 0.00 | 71 | 1022.8 |
| 20260905213103 | 23 | 306 | 0.0 | 0.0 | 0.00 | 0.00 | 0.00 | 71 | 1022.8 |
| 20260905212557 | 23 | 306 | 0.0 | 0.0 | 0.00 | 0.00 | 0.00 | 71 | 1022.8 |
| 20260905212054 | 24 | 306 | 0.0 | 0.0 | 0.00 | 0.00 | 0.00 | 69 | 1022.8 |
| 20260905211547 | 24 | 347 | 0.0 | 0.0 | 0.00 | 0.00 | 0.00 | 69 | 1022.8 |
| 20260905211038 | 24 | 348 | 0.0 | 0.0 | 0.00 | 0.00 | 0.00 | 69 | 1022.8 |
| 20260905210533 | 25 | 348 | 0.0 | 0.0 | 0.00 | 0.00 | 0.00 | 69 | 1022.8 |
| 20260905210031 | 25 | 348 | 0.0 | 0.0 | 0.00 | 0.00 | 0.00 | 68 | 1022.8 |
| 20260905205014 | 25 | 348 | 0.0 | 0.0 | 0.00 | 0.00 | 0.00 | 67 | 1022.7 |
| 20260905204510 | 25 | 349 | 0.0 | 0.0 | 0.00 | 0.00 | 0.00 | 66 | 1022.7 |
| 20260905204004 | 25 | 349 | 0.0 | 0.0 | 0.00 | 0.00 | 0.00 | 66 | 1022.7 |
| 20260905202950 | 25 | 349 | 0.0 | 0.0 | 0.00 | 0.00 | 0.00 | 66 | 1022.7 |
| 20260905202446 | 25 | 349 | 0.0 | 0.0 | 0.00 | 0.00 | 0.00 | 65 | 1022.7 |
| 20260905201939 | 25 | 349 | 0.0 | 0.0 | 0.00 | 0.00 | 0.00 | 65 | 1022.7 |
| 20260905201434 | 26 | 349 | 0.0 | 0.0 | 0.00 | 0.00 | 0.00 | 64 | 1022.7 |
| 20260905200929 | 26 | 349 | 0.0 | 0.0 | 0.00 | 0.00 | 0.00 | 63 | 1022.7 |
| 20260905200425 | 26 | 349 | 0.0 | 0.0 | 0.00 | 0.00 | 0.00 | 62 | 1022.5 |
| 20260905195925 | 27 | 349 | 0.0 | 0.0 | 0.00 | 0.00 | 0.00 | 61 | 1022.5 |
| 20260905195428 | 27 | 347 | 0.0 | 3.2 | 0.00 | 0.00 | 0.00 | 61 | 1022.4 |
| 20260905194925 | 27 | 348 | 0.0 | 4.8 | 0.00 | 0.00 | 0.00 | 61 | 1022.2 |
| 20260905194425 | 27 | 316 | 0.0 | 4.8 | 0.00 | 0.00 | 0.00 | 61 | 1022.1 |
| 20260905193925 | 27 | 301 | 0.0 | 4.8 | 0.00 | 0.00 | 0.00 | 60 | 1021.9 |
| 20260905193425 | 27 | 341 | 0.0 | 4.8 | 0.00 | 0.00 | 0.00 | 60 | 1022.0 |
| 20260905192926 | 27 | 295 | 0.0 | 4.8 | 0.00 | 0.00 | 0.00 | 59 | 1021.8 |
| 20260905192425 | 28 | 266 | 0.0 | 4.8 | 0.00 | 0.00 | 0.00 | 59 | 1021.8 |
| 20260905191924 | 28 | 308 | 0.0 | 6.4 | 0.00 | 0.00 | 0.00 | 58 | 1021.8 |